ASIASAT 9               
1 42942U 17057A   19266.39174977 -.00000370  00000-0  00000-0 0  9993
2 42942   0.0070 187.6717 0002384 353.2847  84.1398  1.00270053  7284
BREEZE-M R/B            
1 42943U 17057B   19264.59836941 -.00000052  00000-0  00000+0 0  9996
2 42943  23.0390 163.9272 6073376 238.4381  48.4785  2.14920860 15534
BREEZE-M DEB [TANK]     
1 42944U 17057C   19266.97487964  .00001665  00000-0  28652-3 0  9995
2 42944  49.6417  98.2337 5238835 107.4242 314.4807  5.23035607 37897